Time,TemperatureF,DewpointF,PressureIn,WindDirection,WindDirectionDegrees,WindSpeedMPH,WindSpeedGustMPH,Humidity,HourlyPrecipIn,Conditions,Clouds,dailyrainin,SoftwareType,DateUTC
2013-04-17 00:00:00,62.6,62.6,30.24,East,100,0.0,0.0,100,0.00,CLR,,0.00,WeatherDisplay:10.37,2013-04-17 04:00:00,
2013-04-17 00:01:00,62.6,62.6,30.24,East,100,0.0,0.0,100,0.00,CLR,,0.00,WeatherDisplay:10.37,2013-04-17 04:01:00,
2013-04-17 00:06:00,62.6,62.6,30.24,East,100,0.0,0.0,100,0.00,CLR,,0.00,WeatherDisplay:10.37,2013-04-17 04:06:00,
2013-04-17 00:11:00,62.6,62.6,30.24,East,100,0.0,0.0,100,0.00,CLR,,0.00,WeatherDisplay:10.37,2013-04-17 04:11:00,
2013-04-17 00:16:00,62.6,62.6,30.24,East,100,0.0,0.0,100,0.00,CLR,,0.00,WeatherDisplay:10.37,2013-04-17 04:16:00,
2013-04-17 00:21:00,62.6,62.6,30.24,East,100,0.0,0.0,100,0.00,CLR,,0.00,WeatherDisplay:10.37,2013-04-17 04:21:00,
2013-04-17 00:26:00,62.6,62.6,30.24,East,100,0.0,0.0,100,0.00,CLR,,0.00,WeatherDisplay:10.37,2013-04-17 04:26:00,
2013-04-17 00:31:00,62.6,62.6,30.24,East,100,0.0,0.0,100,0.00,CLR,,0.00,WeatherDisplay:10.37,2013-04-17 04:31:00,
2013-04-17 00:36:00,62.6,62.6,30.24,East,100,0.0,0.0,100,0.00,CLR,,0.00,WeatherDisplay:10.37,2013-04-17 04:36:00,
2013-04-17 00:41:00,62.6,62.6,30.24,East,100,0.0,0.0,100,0.00,CLR,,0.00,WeatherDisplay:10.37,2013-04-17 04:41:00,
2013-04-17 00:46:00,62.6,62.6,30.24,East,100,0.0,0.0,100,0.00,CLR,,0.00,WeatherDisplay:10.37,2013-04-17 04:46:00,
2013-04-17 00:51:00,62.6,62.6,30.24,East,100,0.0,0.0,100,0.00,CLR,,0.00,WeatherDisplay:10.37,2013-04-17 04:51:00,
2013-04-17 00:56:00,62.6,62.6,30.24,East,100,0.0,0.0,100,0.00,CLR,,0.00,WeatherDisplay:10.37,2013-04-17 04:56:00,
2013-04-17 01:01:00,60.8,60.8,30.24,East,100,0.0,0.0,100,0.00,CLR,,0.00,WeatherDisplay:10.37,2013-04-17 05:01:00,
2013-04-17 01:06:00,60.8,60.8,30.24,East,100,0.0,0.0,100,0.00,CLR,,0.00,WeatherDisplay:10.37,2013-04-17 05:06:00,
2013-04-17 01:11:00,60.8,60.8,30.24,East,100,0.0,0.0,100,0.00,CLR,,0.00,WeatherDisplay:10.37,2013-04-17 05:11:00,
2013-04-17 01:16:00,60.8,60.8,30.24,East,100,0.0,0.0,100,0.00,CLR,,0.00,WeatherDisplay:10.37,2013-04-17 05:16:00,
2013-04-17 01:22:00,62.6,62.6,30.23,East,100,0.0,0.0,100,0.00,CLR,,0.00,WeatherDisplay:10.37,2013-04-17 05:22:00,
2013-04-17 01:27:00,62.6,62.6,30.23,East,100,0.0,0.0,100,0.00,CLR,,0.00,WeatherDisplay:10.37,2013-04-17 05:27:00,
2013-04-17 01:32:00,62.6,62.6,30.23,East,100,0.0,0.0,100,0.00,CLR,,0.00,WeatherDisplay:10.37,2013-04-17 05:32:00,
2013-04-17 01:37:00,62.6,62.6,30.23,East,100,0.0,0.0,100,0.00,CLR,,0.00,WeatherDisplay:10.37,2013-04-17 05:37:00,
2013-04-17 01:42:00,59.0,59.0,30.23,East,100,0.0,0.0,100,0.00,CLR,,0.00,WeatherDisplay:10.37,2013-04-17 05:42:00,
2013-04-17 01:47:00,59.0,59.0,30.23,East,100,0.0,0.0,100,0.00,CLR,,0.00,WeatherDisplay:10.37,2013-04-17 05:47:00,
2013-04-17 01:52:00,59.0,59.0,30.23,East,100,0.0,0.0,100,0.00,CLR,,0.00,WeatherDisplay:10.37,2013-04-17 05:52:00,
2013-04-17 01:57:00,59.0,59.0,30.23,East,100,0.0,0.0,100,0.00,CLR,,0.00,WeatherDisplay:10.37,2013-04-17 05:57:00,
2013-04-17 02:02:00,59.0,59.0,30.22,East,100,0.0,0.0,100,0.00,CLR,,0.00,WeatherDisplay:10.37,2013-04-17 06:02:00,
2013-04-17 02:07:00,59.0,59.0,30.22,East,100,0.0,0.0,100,0.00,CLR,,0.00,WeatherDisplay:10.37,2013-04-17 06:07:00,
2013-04-17 02:12:00,59.0,59.0,30.22,East,100,0.0,0.0,100,0.00,CLR,,0.00,WeatherDisplay:10.37,2013-04-17 06:12:00,
2013-04-17 02:17:00,59.0,59.0,30.22,East,100,0.0,0.0,100,0.00,CLR,,0.00,WeatherDisplay:10.37,2013-04-17 06:17:00,
2013-04-17 02:22:00,59.0,59.0,30.22,East,100,0.0,0.0,100,0.00,CLR,,0.00,WeatherDisplay:10.37,2013-04-17 06:22:00,
2013-04-17 02:27:00,59.0,59.0,30.22,East,100,0.0,0.0,100,0.00,CLR,,0.00,WeatherDisplay:10.37,2013-04-17 06:27:00,
2013-04-17 02:32:00,59.0,59.0,30.22,East,100,0.0,0.0,100,0.00,CLR,,0.00,WeatherDisplay:10.37,2013-04-17 06:32:00,
2013-04-17 02:37:00,59.0,59.0,30.22,East,100,0.0,0.0,100,0.00,CLR,,0.00,WeatherDisplay:10.37,2013-04-17 06:37:00,
2013-04-17 02:42:00,59.0,59.0,30.22,East,100,0.0,0.0,100,0.00,CLR,,0.00,WeatherDisplay:10.37,2013-04-17 06:42:00,
2013-04-17 02:47:00,59.0,59.0,30.22,East,100,0.0,0.0,100,0.00,CLR,,0.00,WeatherDisplay:10.37,2013-04-17 06:47:00,
2013-04-17 02:52:00,59.0,59.0,30.22,East,100,0.0,0.0,100,0.00,CLR,,0.00,WeatherDisplay:10.37,2013-04-17 06:52:00,
2013-04-17 02:57:00,59.0,59.0,30.22,East,100,0.0,0.0,100,0.00,CLR,,0.00,WeatherDisplay:10.37,2013-04-17 06:57:00,
2013-04-17 03:02:00,59.0,59.0,30.22,East,100,0.0,0.0,100,0.00,CLR,,0.00,WeatherDisplay:10.37,2013-04-17 07:02:00,
2013-04-17 03:07:00,59.0,59.0,30.22,East,100,0.0,0.0,100,0.00,CLR,,0.00,WeatherDisplay:10.37,2013-04-17 07:07:00,
2013-04-17 03:12:00,59.0,59.0,30.22,East,100,0.0,0.0,100,0.00,CLR,,0.00,WeatherDisplay:10.37,2013-04-17 07:12:00,
2013-04-17 03:17:00,59.0,59.0,30.22,East,100,0.0,0.0,100,0.00,CLR,,0.00,WeatherDisplay:10.37,2013-04-17 07:17:00,
2013-04-17 03:22:00,60.8,60.8,30.22,East,100,0.0,0.0,100,0.00,CLR,,0.00,WeatherDisplay:10.37,2013-04-17 07:22:00,
2013-04-17 03:27:00,60.8,60.8,30.22,East,100,0.0,0.0,100,0.00,CLR,,0.00,WeatherDisplay:10.37,2013-04-17 07:27:00,
2013-04-17 03:32:00,60.8,60.8,30.22,East,100,0.0,0.0,100,0.00,CLR,,0.00,WeatherDisplay:10.37,2013-04-17 07:32:00,
2013-04-17 03:37:00,60.8,60.8,30.22,East,100,0.0,0.0,100,0.00,CLR,,0.00,WeatherDisplay:10.37,2013-04-17 07:37:00,
2013-04-17 03:42:00,59.0,59.0,30.21,East,100,0.0,0.0,100,0.00,CLR,,0.00,WeatherDisplay:10.37,2013-04-17 07:42:00,
2013-04-17 03:47:00,59.0,59.0,30.21,East,100,0.0,0.0,100,0.00,CLR,,0.00,WeatherDisplay:10.37,2013-04-17 07:47:00,
2013-04-17 03:52:00,59.0,59.0,30.21,East,100,0.0,0.0,100,0.00,CLR,,0.00,WeatherDisplay:10.37,2013-04-17 07:52:00,
2013-04-17 03:57:00,59.0,59.0,30.21,East,100,0.0,0.0,100,0.00,CLR,,0.00,WeatherDisplay:10.37,2013-04-17 07:57:00,
2013-04-17 04:02:00,59.0,59.0,30.21,East,100,0.0,0.0,100,0.00,SCT,,0.00,WeatherDisplay:10.37,2013-04-17 08:02:00,
2013-04-17 04:07:00,59.0,59.0,30.21,East,100,0.0,0.0,100,0.00,SCT,,0.00,WeatherDisplay:10.37,2013-04-17 08:07:00,
2013-04-17 04:12:00,59.0,59.0,30.21,East,100,0.0,0.0,100,0.00,SCT,,0.00,WeatherDisplay:10.37,2013-04-17 08:12:00,
2013-04-17 04:17:00,59.0,59.0,30.21,East,100,0.0,0.0,100,0.00,SCT,,0.00,WeatherDisplay:10.37,2013-04-17 08:17:00,
2013-04-17 04:22:00,57.2,57.2,30.21,East,100,0.0,0.0,100,0.00,SCT,,0.00,WeatherDisplay:10.37,2013-04-17 08:22:00,
2013-04-17 04:27:00,57.2,57.2,30.21,East,100,0.0,0.0,100,0.00,SCT,,0.00,WeatherDisplay:10.37,2013-04-17 08:27:00,
2013-04-17 04:32:00,57.2,57.2,30.21,East,100,0.0,0.0,100,0.00,SCT,,0.00,WeatherDisplay:10.37,2013-04-17 08:32:00,
2013-04-17 04:37:00,57.2,57.2,30.21,East,100,0.0,0.0,100,0.00,SCT,,0.00,WeatherDisplay:10.37,2013-04-17 08:37:00,
2013-04-17 04:42:00,57.2,57.2,30.21,East,100,0.0,0.0,100,0.00,BKN,,0.00,WeatherDisplay:10.37,2013-04-17 08:42:00,
2013-04-17 04:47:00,57.2,57.2,30.21,East,100,0.0,0.0,100,0.00,BKN,,0.00,WeatherDisplay:10.37,2013-04-17 08:47:00,
2013-04-17 04:52:00,57.2,57.2,30.21,East,100,0.0,0.0,100,0.00,BKN,,0.00,WeatherDisplay:10.37,2013-04-17 08:52:00,
2013-04-17 04:57:00,57.2,57.2,30.21,East,100,0.0,0.0,100,0.00,BKN,,0.00,WeatherDisplay:10.37,2013-04-17 08:57:00,
2013-04-17 05:02:00,55.4,55.4,30.21,East,100,0.0,0.0,100,0.00,BKN,,0.00,WeatherDisplay:10.37,2013-04-17 09:02:00,
2013-04-17 05:07:00,55.4,55.4,30.21,East,100,0.0,0.0,100,0.00,BKN,,0.00,WeatherDisplay:10.37,2013-04-17 09:07:00,
2013-04-17 05:12:00,55.4,55.4,30.21,East,100,0.0,0.0,100,0.00,BKN,,0.00,WeatherDisplay:10.37,2013-04-17 09:12:00,
2013-04-17 05:17:00,55.4,55.4,30.21,East,100,0.0,0.0,100,0.00,BKN,,0.00,WeatherDisplay:10.37,2013-04-17 09:17:00,
2013-04-17 05:22:00,57.2,57.2,30.21,East,100,0.0,0.0,100,0.00,OVC,,0.00,WeatherDisplay:10.37,2013-04-17 09:22:00,
2013-04-17 05:27:00,57.2,57.2,30.21,East,100,0.0,0.0,100,0.00,OVC,,0.00,WeatherDisplay:10.37,2013-04-17 09:27:00,
2013-04-17 05:32:00,57.2,57.2,30.21,East,100,0.0,0.0,100,0.00,OVC,,0.00,WeatherDisplay:10.37,2013-04-17 09:32:00,
2013-04-17 05:37:00,57.2,57.2,30.21,East,100,0.0,0.0,100,0.00,OVC,,0.00,WeatherDisplay:10.37,2013-04-17 09:37:00,
2013-04-17 05:42:00,55.4,55.4,30.21,East,100,0.0,0.0,100,0.00,OVC,,0.00,WeatherDisplay:10.37,2013-04-17 09:42:00,
2013-04-17 05:47:00,55.4,55.4,30.21,East,100,0.0,0.0,100,0.00,OVC,,0.00,WeatherDisplay:10.37,2013-04-17 09:47:00,
2013-04-17 05:52:00,55.4,55.4,30.21,East,100,0.0,0.0,100,0.00,OVC,,0.00,WeatherDisplay:10.37,2013-04-17 09:52:00,
2013-04-17 05:57:00,55.4,55.4,30.21,East,100,0.0,0.0,100,0.00,OVC,,0.00,WeatherDisplay:10.37,2013-04-17 09:57:00,
2013-04-17 06:02:00,59.0,59.0,30.21,East,100,0.0,0.0,100,0.00,OVC,,0.00,WeatherDisplay:10.37,2013-04-17 10:02:00,
2013-04-17 06:07:00,59.0,59.0,30.21,East,100,0.0,0.0,100,0.00,OVC,,0.00,WeatherDisplay:10.37,2013-04-17 10:07:00,
2013-04-17 06:12:00,59.0,59.0,30.21,East,100,0.0,0.0,100,0.00,OVC,,0.00,WeatherDisplay:10.37,2013-04-17 10:12:00,
2013-04-17 06:17:00,59.0,59.0,30.21,East,100,0.0,0.0,100,0.00,OVC,,0.00,WeatherDisplay:10.37,2013-04-17 10:17:00,
2013-04-17 06:22:00,55.4,55.4,30.22,East,100,0.0,0.0,100,0.00,OVC,,0.00,WeatherDisplay:10.37,2013-04-17 10:22:00,
2013-04-17 06:27:00,55.4,55.4,30.22,East,100,0.0,0.0,100,0.00,OVC,,0.00,WeatherDisplay:10.37,2013-04-17 10:27:00,
2013-04-17 06:32:00,55.4,55.4,30.22,East,100,0.0,0.0,100,0.00,OVC,,0.00,WeatherDisplay:10.37,2013-04-17 10:32:00,
2013-04-17 06:37:00,55.4,55.4,30.22,East,100,0.0,0.0,100,0.00,OVC,,0.00,WeatherDisplay:10.37,2013-04-17 10:37:00,
2013-04-17 06:42:00,55.4,55.4,30.23,East,100,0.0,0.0,100,0.00,SCT,,0.00,WeatherDisplay:10.37,2013-04-17 10:42:00,
2013-04-17 06:47:00,55.4,55.4,30.23,East,100,0.0,0.0,100,0.00,SCT,,0.00,WeatherDisplay:10.37,2013-04-17 10:47:00,
2013-04-17 06:52:00,55.4,55.4,30.23,East,100,0.0,0.0,100,0.00,SCT,,0.00,WeatherDisplay:10.37,2013-04-17 10:52:00,
2013-04-17 06:57:00,55.4,55.4,30.23,East,100,0.0,0.0,100,0.00,SCT,,0.00,WeatherDisplay:10.37,2013-04-17 10:57:00,
2013-04-17 07:02:00,55.4,55.4,30.23,East,100,0.0,0.0,100,0.00,BKN,,0.00,WeatherDisplay:10.37,2013-04-17 11:02:00,
2013-04-17 07:07:00,55.4,55.4,30.23,East,100,0.0,0.0,100,0.00,BKN,,0.00,WeatherDisplay:10.37,2013-04-17 11:07:00,
2013-04-17 07:12:00,55.4,55.4,30.23,East,100,0.0,0.0,100,0.00,BKN,,0.00,WeatherDisplay:10.37,2013-04-17 11:12:00,
2013-04-17 07:17:00,55.4,55.4,30.23,East,100,0.0,0.0,100,0.00,BKN,,0.00,WeatherDisplay:10.37,2013-04-17 11:17:00,
2013-04-17 07:22:00,55.4,55.4,30.23,East,100,0.0,0.0,100,0.00,BKN,,0.00,WeatherDisplay:10.37,2013-04-17 11:22:00,
2013-04-17 07:27:00,55.4,55.4,30.23,East,100,0.0,0.0,100,0.00,BKN,,0.00,WeatherDisplay:10.37,2013-04-17 11:27:00,
2013-04-17 07:32:00,55.4,55.4,30.24,East,100,0.0,0.0,100,0.00,SCT,,0.00,WeatherDisplay:10.37,2013-04-17 11:32:00,
2013-04-17 07:37:00,55.4,55.4,30.24,East,100,0.0,0.0,100,0.00,SCT,,0.00,WeatherDisplay:10.37,2013-04-17 11:37:00,
2013-04-17 07:42:00,59.0,59.0,30.25,East,100,0.0,0.0,100,0.00,CLR,,0.00,WeatherDisplay:10.37,2013-04-17 11:42:00,
2013-04-17 07:47:00,59.0,59.0,30.25,East,100,0.0,0.0,100,0.00,CLR,,0.00,WeatherDisplay:10.37,2013-04-17 11:47:00,
2013-04-17 07:52:00,59.0,59.0,30.25,East,100,0.0,0.0,100,0.00,CLR,,0.00,WeatherDisplay:10.37,2013-04-17 11:52:00,
2013-04-17 07:57:00,59.0,59.0,30.25,East,100,0.0,0.0,100,0.00,CLR,,0.00,WeatherDisplay:10.37,2013-04-17 11:57:00,
2013-04-17 08:02:00,60.8,60.8,30.26,East,100,0.0,0.0,100,0.00,CLR,,0.00,WeatherDisplay:10.37,2013-04-17 12:02:00,
2013-04-17 08:07:00,60.8,60.8,30.26,East,100,0.0,0.0,100,0.00,CLR,,0.00,WeatherDisplay:10.37,2013-04-17 12:07:00,
2013-04-17 08:12:00,60.8,60.8,30.26,East,100,0.0,0.0,100,0.00,CLR,,0.00,WeatherDisplay:10.37,2013-04-17 12:12:00,
2013-04-17 08:17:00,60.8,60.8,30.26,East,100,0.0,0.0,100,0.00,CLR,,0.00,WeatherDisplay:10.37,2013-04-17 12:17:00,
2013-04-17 08:22:00,60.8,60.8,30.26,East,100,0.0,0.0,100,0.00,CLR,,0.00,WeatherDisplay:10.37,2013-04-17 12:22:00,
2013-04-17 08:27:00,60.8,60.8,30.26,East,100,0.0,0.0,100,0.00,CLR,,0.00,WeatherDisplay:10.37,2013-04-17 12:27:00,
2013-04-17 08:32:00,60.8,60.8,30.26,East,100,0.0,0.0,100,0.00,CLR,,0.00,WeatherDisplay:10.37,2013-04-17 12:32:00,
2013-04-17 08:37:00,60.8,60.8,30.26,East,100,0.0,0.0,100,0.00,CLR,,0.00,WeatherDisplay:10.37,2013-04-17 12:37:00,
2013-04-17 08:42:00,62.6,62.6,30.26,East,100,0.0,0.0,100,0.00,CLR,,0.00,WeatherDisplay:10.37,2013-04-17 12:42:00,
2013-04-17 08:47:00,62.6,62.6,30.26,East,100,0.0,0.0,100,0.00,CLR,,0.00,WeatherDisplay:10.37,2013-04-17 12:47:00,
2013-04-17 08:52:00,62.6,62.6,30.26,East,100,0.0,0.0,100,0.00,CLR,,0.00,WeatherDisplay:10.37,2013-04-17 12:52:00,
2013-04-17 08:57:00,62.6,62.6,30.26,East,100,0.0,0.0,100,0.00,CLR,,0.00,WeatherDisplay:10.37,2013-04-17 12:57:00,
2013-04-17 09:02:00,64.4,64.4,30.25,East,100,0.0,0.0,100,0.00,CLR,,0.00,WeatherDisplay:10.37,2013-04-17 13:02:00,
2013-04-17 09:07:00,64.4,64.4,30.25,East,100,0.0,0.0,100,0.00,CLR,,0.00,WeatherDisplay:10.37,2013-04-17 13:07:00,
2013-04-17 09:12:00,64.4,64.4,30.25,East,100,0.0,0.0,100,0.00,CLR,,0.00,WeatherDisplay:10.37,2013-04-17 13:12:00,
2013-04-17 09:17:00,64.4,64.4,30.25,East,100,0.0,0.0,100,0.00,CLR,,0.00,WeatherDisplay:10.37,2013-04-17 13:17:00,
2013-04-17 09:22:00,68.0,68.0,30.25,East,100,0.0,0.0,100,0.00,CLR,,0.00,WeatherDisplay:10.37,2013-04-17 13:22:00,
2013-04-17 09:27:00,68.0,68.0,30.25,East,100,0.0,0.0,100,0.00,CLR,,0.00,WeatherDisplay:10.37,2013-04-17 13:27:00,
2013-04-17 09:32:00,68.0,68.0,30.25,East,100,0.0,0.0,100,0.00,CLR,,0.00,WeatherDisplay:10.37,2013-04-17 13:32:00,
2013-04-17 09:37:00,68.0,68.0,30.25,East,100,0.0,0.0,100,0.00,CLR,,0.00,WeatherDisplay:10.37,2013-04-17 13:37:00,
2013-04-17 09:42:00,69.8,68.0,30.25,East,100,0.0,0.0,94,0.00,CLR,,0.00,WeatherDisplay:10.37,2013-04-17 13:42:00,
2013-04-17 09:47:00,69.8,68.0,30.25,East,100,0.0,0.0,94,0.00,CLR,,0.00,WeatherDisplay:10.37,2013-04-17 13:47:00,
2013-04-17 09:52:00,69.8,68.0,30.25,East,100,0.0,0.0,94,0.00,CLR,,0.00,WeatherDisplay:10.37,2013-04-17 13:52:00,
2013-04-17 09:57:00,69.8,68.0,30.25,East,100,0.0,0.0,94,0.00,CLR,,0.00,WeatherDisplay:10.37,2013-04-17 13:57:00,
2013-04-17 10:02:00,69.8,66.1,30.24,East,100,0.0,0.0,88,0.00,CLR,,0.00,WeatherDisplay:10.37,2013-04-17 14:02:00,
2013-04-17 10:07:00,69.8,66.1,30.24,East,100,0.0,0.0,88,0.00,CLR,,0.00,WeatherDisplay:10.37,2013-04-17 14:07:00,
2013-04-17 10:12:00,69.8,66.1,30.24,East,100,0.0,0.0,88,0.00,CLR,,0.00,WeatherDisplay:10.37,2013-04-17 14:12:00,
2013-04-17 10:17:00,69.8,66.1,30.24,East,100,0.0,0.0,88,0.00,CLR,,0.00,WeatherDisplay:10.37,2013-04-17 14:17:00,
2013-04-17 10:22:00,69.8,66.1,30.24,East,100,0.0,0.0,88,0.00,CLR,,0.00,WeatherDisplay:10.37,2013-04-17 14:22:00,
2013-04-17 10:27:00,69.8,66.1,30.24,East,100,0.0,0.0,88,0.00,CLR,,0.00,WeatherDisplay:10.37,2013-04-17 14:27:00,
2013-04-17 10:32:00,71.6,64.4,30.24,East,100,0.0,0.0,78,0.00,CLR,,0.00,WeatherDisplay:10.37,2013-04-17 14:32:00,
2013-04-17 10:37:00,71.6,64.4,30.24,East,100,0.0,0.0,78,0.00,CLR,,0.00,WeatherDisplay:10.37,2013-04-17 14:37:00,
2013-04-17 10:42:00,73.4,64.2,30.24,East,100,0.0,0.0,73,0.00,CLR,,0.00,WeatherDisplay:10.37,2013-04-17 14:42:00,
2013-04-17 10:47:00,73.4,64.2,30.24,East,100,0.0,0.0,73,0.00,CLR,,0.00,WeatherDisplay:10.37,2013-04-17 14:47:00,
2013-04-17 10:52:00,73.4,64.2,30.24,East,100,0.0,0.0,73,0.00,CLR,,0.00,WeatherDisplay:10.37,2013-04-17 14:52:00,
2013-04-17 10:57:00,73.4,64.2,30.24,East,100,0.0,0.0,73,0.00,CLR,,0.00,WeatherDisplay:10.37,2013-04-17 14:57:00,
2013-04-17 11:02:00,75.2,62.2,30.24,SE,140,3.5,3.5,64,0.00,CLR,,0.00,WeatherDisplay:10.37,2013-04-17 15:02:00,
2013-04-17 11:07:00,75.2,62.2,30.24,SE,140,3.5,3.5,64,0.00,CLR,,0.00,WeatherDisplay:10.37,2013-04-17 15:07:00,
2013-04-17 11:12:00,75.2,62.2,30.24,SE,140,3.5,3.5,64,0.00,CLR,,0.00,WeatherDisplay:10.37,2013-04-17 15:12:00,
2013-04-17 11:17:00,75.2,62.2,30.24,SE,140,3.5,3.5,64,0.00,CLR,,0.00,WeatherDisplay:10.37,2013-04-17 15:17:00,
2013-04-17 11:22:00,77.0,64.3,30.23,ESE,120,5.8,5.8,65,0.00,SCT,,0.00,WeatherDisplay:10.37,2013-04-17 15:22:00,
2013-04-17 11:27:00,77.0,64.3,30.23,ESE,120,5.8,5.8,65,0.00,SCT,,0.00,WeatherDisplay:10.37,2013-04-17 15:27:00,
2013-04-17 11:32:00,77.0,64.3,30.23,ESE,120,5.8,5.8,65,0.00,SCT,,0.00,WeatherDisplay:10.37,2013-04-17 15:32:00,
2013-04-17 11:37:00,77.0,64.3,30.23,ESE,120,5.8,5.8,65,0.00,SCT,,0.00,WeatherDisplay:10.37,2013-04-17 15:37:00,
2013-04-17 11:42:00,77.0,64.3,30.23,ESE,110,6.9,6.9,65,0.00,SCT,,0.00,WeatherDisplay:10.37,2013-04-17 15:42:00,
2013-04-17 11:47:00,77.0,64.3,30.23,ESE,110,6.9,6.9,65,0.00,SCT,,0.00,WeatherDisplay:10.37,2013-04-17 15:47:00,
2013-04-17 11:52:00,77.0,64.3,30.23,ESE,110,6.9,6.9,65,0.00,SCT,,0.00,WeatherDisplay:10.37,2013-04-17 15:52:00,
2013-04-17 11:57:00,77.0,64.3,30.23,ESE,110,6.9,6.9,65,0.00,SCT,,0.00,WeatherDisplay:10.37,2013-04-17 15:57:00,
2013-04-17 12:02:00,77.0,64.3,30.23,ESE,110,6.9,6.9,65,0.00,SCT,,0.00,WeatherDisplay:10.37,2013-04-17 16:02:00,
2013-04-17 12:07:00,77.0,64.3,30.23,ESE,110,6.9,6.9,65,0.00,SCT,,0.00,WeatherDisplay:10.37,2013-04-17 16:07:00,
2013-04-17 12:12:00,77.0,64.3,30.23,SE,130,9.2,9.2,65,0.00,CLR,,0.00,WeatherDisplay:10.37,2013-04-17 16:12:00,
2013-04-17 12:17:00,77.0,64.3,30.23,SE,130,9.2,9.2,65,0.00,CLR,,0.00,WeatherDisplay:10.37,2013-04-17 16:17:00,
2013-04-17 12:22:00,75.2,64.3,30.23,SE,130,10.4,10.4,69,0.00,CLR,,0.00,WeatherDisplay:10.37,2013-04-17 16:22:00,
2013-04-17 12:27:00,75.2,64.3,30.23,SE,130,10.4,10.4,69,0.00,CLR,,0.00,WeatherDisplay:10.37,2013-04-17 16:27:00,
2013-04-17 12:32:00,75.2,64.3,30.23,SE,130,10.4,10.4,69,0.00,CLR,,0.00,WeatherDisplay:10.37,2013-04-17 16:32:00,
2013-04-17 12:37:00,75.2,64.3,30.23,SE,130,10.4,10.4,69,0.00,CLR,,0.00,WeatherDisplay:10.37,2013-04-17 16:37:00,
2013-04-17 12:42:00,77.0,64.3,30.22,SE,130,10.4,10.4,65,0.00,CLR,,0.00,WeatherDisplay:10.37,2013-04-17 16:42:00,
2013-04-17 12:47:00,77.0,64.3,30.22,SE,130,10.4,10.4,65,0.00,CLR,,0.00,WeatherDisplay:10.37,2013-04-17 16:47:00,
2013-04-17 12:52:00,77.0,64.3,30.22,SE,130,10.4,10.4,65,0.00,CLR,,0.00,WeatherDisplay:10.37,2013-04-17 16:52:00,
2013-04-17 12:57:00,77.0,64.3,30.22,SE,130,10.4,10.4,65,0.00,CLR,,0.00,WeatherDisplay:10.37,2013-04-17 16:57:00,
2013-04-17 13:02:00,77.0,64.3,30.22,SE,130,10.4,10.4,65,0.00,CLR,,0.00,WeatherDisplay:10.37,2013-04-17 17:02:00,
2013-04-17 13:07:00,77.0,64.3,30.22,SE,130,10.4,10.4,65,0.00,CLR,,0.00,WeatherDisplay:10.37,2013-04-17 17:07:00,
2013-04-17 13:12:00,77.0,64.3,30.21,SE,130,10.4,10.4,65,0.00,CLR,,0.00,WeatherDisplay:10.37,2013-04-17 17:12:00,
2013-04-17 13:17:00,77.0,64.3,30.21,SE,130,9.2,9.2,65,0.00,CLR,,0.00,WeatherDisplay:10.37,2013-04-17 17:17:00,
2013-04-17 13:22:00,77.0,64.3,30.21,SE,130,9.2,9.2,65,0.00,CLR,,0.00,WeatherDisplay:10.37,2013-04-17 17:22:00,
2013-04-17 13:27:00,77.0,64.3,30.21,SE,130,9.2,9.2,65,0.00,CLR,,0.00,WeatherDisplay:10.37,2013-04-17 17:27:00,
2013-04-17 13:32:00,77.0,62.5,30.21,ESE,120,10.4,10.4,61,0.00,CLR,,0.00,WeatherDisplay:10.37,2013-04-17 17:32:00,
2013-04-17 13:37:00,77.0,62.5,30.21,ESE,120,10.4,10.4,61,0.00,CLR,,0.00,WeatherDisplay:10.37,2013-04-17 17:37:00,
2013-04-17 13:42:00,77.0,62.5,30.21,ESE,120,10.4,10.4,61,0.00,CLR,,0.00,WeatherDisplay:10.37,2013-04-17 17:42:00,
2013-04-17 13:47:00,77.0,62.5,30.21,ESE,120,10.4,10.4,61,0.00,CLR,,0.00,WeatherDisplay:10.37,2013-04-17 17:47:00,
2013-04-17 13:52:00,78.8,62.3,30.20,SE,130,10.4,10.4,57,0.00,CLR,,0.00,WeatherDisplay:10.37,2013-04-17 17:52:00,
2013-04-17 13:57:00,78.8,62.3,30.20,SE,130,10.4,10.4,57,0.00,CLR,,0.00,WeatherDisplay:10.37,2013-04-17 17:57:00,
2013-04-17 14:02:00,78.8,62.3,30.19,ESE,120,10.4,10.4,57,0.00,CLR,,0.00,WeatherDisplay:10.37,2013-04-17 18:02:00,
2013-04-17 14:07:00,78.8,62.3,30.19,ESE,120,10.4,10.4,57,0.00,CLR,,0.00,WeatherDisplay:10.37,2013-04-17 18:07:00,
2013-04-17 14:12:00,78.8,62.3,30.19,ESE,120,10.4,10.4,57,0.00,CLR,,0.00,WeatherDisplay:10.37,2013-04-17 18:12:00,
2013-04-17 14:17:00,78.8,62.3,30.19,ESE,120,10.4,10.4,57,0.00,CLR,,0.00,WeatherDisplay:10.37,2013-04-17 18:17:00,
2013-04-17 14:22:00,77.0,62.5,30.19,ESE,120,18.4,18.4,61,0.00,CLR,,0.00,WeatherDisplay:10.37,2013-04-17 18:22:00,
2013-04-17 14:27:00,77.0,62.5,30.19,ESE,120,18.4,18.4,61,0.00,CLR,,0.00,WeatherDisplay:10.37,2013-04-17 18:27:00,
2013-04-17 14:32:00,77.0,62.5,30.19,ESE,120,18.4,18.4,61,0.00,CLR,,0.00,WeatherDisplay:10.37,2013-04-17 18:32:00,
2013-04-17 14:37:00,77.0,62.5,30.19,ESE,120,18.4,18.4,61,0.00,CLR,,0.00,WeatherDisplay:10.37,2013-04-17 18:37:00,
2013-04-17 14:42:00,77.0,60.6,30.19,ESE,110,18.4,18.4,57,0.00,CLR,,0.00,WeatherDisplay:10.37,2013-04-17 18:42:00,
2013-04-17 14:47:00,77.0,60.6,30.19,ESE,110,12.7,12.7,57,0.00,CLR,,0.00,WeatherDisplay:10.37,2013-04-17 18:47:00,
2013-04-17 14:52:00,77.0,60.6,30.19,ESE,110,12.7,12.7,57,0.00,CLR,,0.00,WeatherDisplay:10.37,2013-04-17 18:52:00,
2013-04-17 14:57:00,77.0,60.6,30.19,ESE,110,12.7,12.7,57,0.00,CLR,,0.00,WeatherDisplay:10.37,2013-04-17 18:57:00,
2013-04-17 15:02:00,77.0,60.6,30.19,ESE,120,13.8,13.8,57,0.00,CLR,,0.00,WeatherDisplay:10.37,2013-04-17 19:02:00,
2013-04-17 15:07:00,77.0,60.6,30.19,ESE,120,13.8,13.8,57,0.00,CLR,,0.00,WeatherDisplay:10.37,2013-04-17 19:07:00,
2013-04-17 15:12:00,77.0,60.6,30.19,ESE,120,13.8,13.8,57,0.00,CLR,,0.00,WeatherDisplay:10.37,2013-04-17 19:12:00,
2013-04-17 15:17:00,77.0,60.6,30.19,ESE,120,13.8,13.8,57,0.00,CLR,,0.00,WeatherDisplay:10.37,2013-04-17 19:17:00,
2013-04-17 15:22:00,77.0,64.3,30.19,SE,130,11.5,11.5,65,0.00,CLR,,0.00,WeatherDisplay:10.37,2013-04-17 19:22:00,
2013-04-17 15:27:00,77.0,64.3,30.19,SE,130,11.5,11.5,65,0.00,CLR,,0.00,WeatherDisplay:10.37,2013-04-17 19:27:00,
2013-04-17 15:32:00,77.0,64.3,30.19,SE,130,11.5,11.5,65,0.00,CLR,,0.00,WeatherDisplay:10.37,2013-04-17 19:32:00,
2013-04-17 15:37:00,77.0,64.3,30.19,SE,130,11.5,11.5,65,0.00,CLR,,0.00,WeatherDisplay:10.37,2013-04-17 19:37:00,
2013-04-17 15:42:00,77.0,62.5,30.18,ESE,120,11.5,11.5,61,0.00,CLR,,0.00,WeatherDisplay:10.37,2013-04-17 19:42:00,
2013-04-17 15:47:00,77.0,62.5,30.18,ESE,120,11.5,11.5,61,0.00,CLR,,0.00,WeatherDisplay:10.37,2013-04-17 19:47:00,
2013-04-17 15:52:00,77.0,62.5,30.18,ESE,120,11.5,11.5,61,0.00,CLR,,0.00,WeatherDisplay:10.37,2013-04-17 19:52:00,
2013-04-17 15:57:00,77.0,62.5,30.18,ESE,120,11.5,11.5,61,0.00,CLR,,0.00,WeatherDisplay:10.37,2013-04-17 19:57:00,
2013-04-17 16:02:00,77.0,62.5,30.18,ESE,110,11.5,11.5,61,0.00,CLR,,0.00,WeatherDisplay:10.37,2013-04-17 20:02:00,
2013-04-17 16:07:00,77.0,62.5,30.18,ESE,110,10.4,10.4,61,0.00,CLR,,0.00,WeatherDisplay:10.37,2013-04-17 20:07:00,
2013-04-17 16:12:00,77.0,62.5,30.18,ESE,110,10.4,10.4,61,0.00,CLR,,0.00,WeatherDisplay:10.37,2013-04-17 20:12:00,
2013-04-17 16:17:00,77.0,62.5,30.18,ESE,110,10.4,10.4,61,0.00,CLR,,0.00,WeatherDisplay:10.37,2013-04-17 20:17:00,
2013-04-17 16:22:00,77.0,62.5,30.18,ESE,110,10.4,10.4,61,0.00,CLR,,0.00,WeatherDisplay:10.37,2013-04-17 20:22:00,
2013-04-17 16:27:00,77.0,62.5,30.18,ESE,110,9.2,9.2,61,0.00,CLR,,0.00,WeatherDisplay:10.37,2013-04-17 20:27:00,
2013-04-17 16:32:00,77.0,62.5,30.18,ESE,110,9.2,9.2,61,0.00,CLR,,0.00,WeatherDisplay:10.37,2013-04-17 20:32:00,
2013-04-17 16:37:00,77.0,62.5,30.18,ESE,110,9.2,9.2,61,0.00,CLR,,0.00,WeatherDisplay:10.37,2013-04-17 20:37:00,
2013-04-17 16:42:00,75.2,64.3,30.17,ESE,120,11.5,11.5,69,0.00,CLR,,0.00,WeatherDisplay:10.37,2013-04-17 20:42:00,
2013-04-17 16:47:00,75.2,64.3,30.17,ESE,120,11.5,11.5,69,0.00,CLR,,0.00,WeatherDisplay:10.37,2013-04-17 20:47:00,
2013-04-17 16:52:00,75.2,64.3,30.17,ESE,120,11.5,11.5,69,0.00,CLR,,0.00,WeatherDisplay:10.37,2013-04-17 20:52:00,
2013-04-17 16:57:00,75.2,64.3,30.17,ESE,120,11.5,11.5,69,0.00,CLR,,0.00,WeatherDisplay:10.37,2013-04-17 20:57:00,
2013-04-17 17:02:00,75.2,64.3,30.17,ESE,110,11.5,11.5,69,0.00,CLR,,0.00,WeatherDisplay:10.37,2013-04-17 21:02:00,
2013-04-17 17:07:00,75.2,64.3,30.17,ESE,110,11.5,11.5,69,0.00,CLR,,0.00,WeatherDisplay:10.37,2013-04-17 21:07:00,
2013-04-17 17:12:00,75.2,64.3,30.17,ESE,110,11.5,11.5,69,0.00,CLR,,0.00,WeatherDisplay:10.37,2013-04-17 21:12:00,
2013-04-17 17:17:00,75.2,64.3,30.17,ESE,110,11.5,11.5,69,0.00,CLR,,0.00,WeatherDisplay:10.37,2013-04-17 21:17:00,
2013-04-17 17:22:00,73.4,64.2,30.17,ESE,120,11.5,11.5,73,0.00,CLR,,0.00,WeatherDisplay:10.37,2013-04-17 21:22:00,
2013-04-17 17:27:00,73.4,64.2,30.17,ESE,120,9.2,9.2,73,0.00,CLR,,0.00,WeatherDisplay:10.37,2013-04-17 21:27:00,
2013-04-17 17:32:00,73.4,64.2,30.17,ESE,120,9.2,9.2,73,0.00,CLR,,0.00,WeatherDisplay:10.37,2013-04-17 21:32:00,
2013-04-17 17:37:00,73.4,64.2,30.17,ESE,120,9.2,9.2,73,0.00,CLR,,0.00,WeatherDisplay:10.37,2013-04-17 21:37:00,
2013-04-17 17:42:00,73.4,62.2,30.17,ESE,120,9.2,9.2,68,0.00,CLR,,0.00,WeatherDisplay:10.37,2013-04-17 21:42:00,
2013-04-17 17:47:00,73.4,62.2,30.17,ESE,120,9.2,9.2,68,0.00,CLR,,0.00,WeatherDisplay:10.37,2013-04-17 21:47:00,
2013-04-17 17:52:00,73.4,62.2,30.17,ESE,120,9.2,9.2,68,0.00,CLR,,0.00,WeatherDisplay:10.37,2013-04-17 21:52:00,
2013-04-17 17:57:00,73.4,62.2,30.17,ESE,120,9.2,9.2,68,0.00,CLR,,0.00,WeatherDisplay:10.37,2013-04-17 21:57:00,
2013-04-17 18:02:00,73.4,62.2,30.17,ESE,120,9.2,9.2,68,0.00,CLR,,0.00,WeatherDisplay:10.37,2013-04-17 22:02:00,
2013-04-17 18:07:00,73.4,62.2,30.17,ESE,120,9.2,9.2,68,0.00,CLR,,0.00,WeatherDisplay:10.37,2013-04-17 22:07:00,
2013-04-17 18:12:00,73.4,62.2,30.16,ESE,120,10.4,10.4,68,0.00,CLR,,0.00,WeatherDisplay:10.37,2013-04-17 22:12:00,
2013-04-17 18:17:00,73.4,62.2,30.16,ESE,120,10.4,10.4,68,0.00,CLR,,0.00,WeatherDisplay:10.37,2013-04-17 22:17:00,
2013-04-17 18:22:00,73.4,62.2,30.17,ESE,120,10.4,10.4,68,0.00,CLR,,0.00,WeatherDisplay:10.37,2013-04-17 22:22:00,
2013-04-17 18:27:00,73.4,62.2,30.17,ESE,120,10.4,10.4,68,0.00,CLR,,0.00,WeatherDisplay:10.37,2013-04-17 22:27:00,
2013-04-17 18:32:00,73.4,62.2,30.17,ESE,120,10.4,10.4,68,0.00,CLR,,0.00,WeatherDisplay:10.37,2013-04-17 22:32:00,
2013-04-17 18:37:00,73.4,62.2,30.17,ESE,120,10.4,10.4,68,0.00,CLR,,0.00,WeatherDisplay:10.37,2013-04-17 22:37:00,
2013-04-17 18:42:00,71.6,60.5,30.17,ESE,110,10.4,10.4,68,0.00,CLR,,0.00,WeatherDisplay:10.37,2013-04-17 22:42:00,
2013-04-17 18:47:00,71.6,60.5,30.17,ESE,110,8.1,8.1,68,0.00,CLR,,0.00,WeatherDisplay:10.37,2013-04-17 22:47:00,
2013-04-17 18:52:00,71.6,60.5,30.17,ESE,110,8.1,8.1,68,0.00,CLR,,0.00,WeatherDisplay:10.37,2013-04-17 22:52:00,
2013-04-17 18:57:00,71.6,60.5,30.17,ESE,110,8.1,8.1,68,0.00,CLR,,0.00,WeatherDisplay:10.37,2013-04-17 22:57:00,
2013-04-17 19:02:00,71.6,60.5,30.17,ESE,110,8.1,8.1,68,0.00,CLR,,0.00,WeatherDisplay:10.37,2013-04-17 23:02:00,
2013-04-17 19:07:00,71.6,60.5,30.17,ESE,110,8.1,8.1,68,0.00,CLR,,0.00,WeatherDisplay:10.37,2013-04-17 23:07:00,
2013-04-17 19:12:00,71.6,62.5,30.17,East,100,8.1,8.1,73,0.00,CLR,,0.00,WeatherDisplay:10.37,2013-04-17 23:12:00,
2013-04-17 19:17:00,71.6,62.5,30.17,East,100,6.9,6.9,73,0.00,CLR,,0.00,WeatherDisplay:10.37,2013-04-17 23:17:00,
2013-04-17 19:22:00,69.8,62.3,30.17,ESE,120,6.9,6.9,77,0.00,CLR,,0.00,WeatherDisplay:10.37,2013-04-17 23:22:00,
2013-04-17 19:27:00,69.8,62.3,30.17,ESE,120,6.9,6.9,77,0.00,CLR,,0.00,WeatherDisplay:10.37,2013-04-17 23:27:00,
2013-04-17 19:32:00,69.8,62.3,30.17,ESE,120,6.9,6.9,77,0.00,CLR,,0.00,WeatherDisplay:10.37,2013-04-17 23:32:00,
2013-04-17 19:37:00,69.8,62.3,30.17,ESE,120,6.9,6.9,77,0.00,CLR,,0.00,WeatherDisplay:10.37,2013-04-17 23:37:00,
2013-04-17 19:42:00,69.8,62.3,30.17,SE,130,6.9,6.9,77,0.00,CLR,,0.00,WeatherDisplay:10.37,2013-04-17 23:42:00,
2013-04-17 19:47:00,69.8,62.3,30.17,SE,130,5.8,5.8,77,0.00,CLR,,0.00,WeatherDisplay:10.37,2013-04-17 23:47:00,
2013-04-17 19:52:00,69.8,62.3,30.17,SE,130,5.8,5.8,77,0.00,CLR,,0.00,WeatherDisplay:10.37,2013-04-17 23:52:00,
2013-04-17 19:57:00,69.8,62.3,30.17,SE,130,5.8,5.8,77,0.00,CLR,,0.00,WeatherDisplay:10.37,2013-04-17 23:57:00,
2013-04-17 20:02:00,68.0,62.3,30.17,SE,130,5.8,5.8,82,0.00,CLR,,0.00,WeatherDisplay:10.37,2013-04-18 00:02:00,
2013-04-17 20:07:00,68.0,62.3,30.17,SE,130,4.6,4.6,82,0.00,CLR,,0.00,WeatherDisplay:10.37,2013-04-18 00:07:00,
2013-04-17 20:12:00,68.0,62.3,30.17,SE,130,4.6,4.6,82,0.00,CLR,,0.00,WeatherDisplay:10.37,2013-04-18 00:12:00,
2013-04-17 20:17:00,68.0,62.3,30.17,SE,130,4.6,4.6,82,0.00,CLR,,0.00,WeatherDisplay:10.37,2013-04-18 00:17:00,
2013-04-17 20:22:00,68.0,62.3,30.17,SSE,160,3.5,3.5,82,0.00,CLR,,0.00,WeatherDisplay:10.37,2013-04-18 00:22:00,
2013-04-17 20:27:00,68.0,62.3,30.17,SSE,160,3.5,3.5,82,0.00,CLR,,0.00,WeatherDisplay:10.37,2013-04-18 00:27:00,
2013-04-17 20:32:00,68.0,62.3,30.17,SSE,160,3.5,3.5,82,0.00,CLR,,0.00,WeatherDisplay:10.37,2013-04-18 00:32:00,
2013-04-17 20:37:00,68.0,62.3,30.17,SSE,160,3.5,3.5,82,0.00,CLR,,0.00,WeatherDisplay:10.37,2013-04-18 00:37:00,
2013-04-17 20:42:00,66.2,62.5,30.18,SSE,160,3.5,0.0,88,0.00,CLR,,0.00,WeatherDisplay:10.37,2013-04-18 00:42:00,
2013-04-17 20:47:00,66.2,62.5,30.18,SSE,160,0.0,0.0,88,0.00,CLR,,0.00,WeatherDisplay:10.37,2013-04-18 00:47:00,
2013-04-17 20:52:00,66.2,62.5,30.18,SSE,160,0.0,0.0,88,0.00,CLR,,0.00,WeatherDisplay:10.37,2013-04-18 00:52:00,
2013-04-17 20:57:00,66.2,62.5,30.18,SSE,160,0.0,0.0,88,0.00,CLR,,0.00,WeatherDisplay:10.37,2013-04-18 00:57:00,
2013-04-17 21:02:00,64.4,64.4,30.18,SSE,160,0.0,0.0,100,0.00,CLR,,0.00,WeatherDisplay:10.37,2013-04-18 01:02:00,
2013-04-17 21:07:00,64.4,64.4,30.18,SSE,160,0.0,0.0,100,0.00,CLR,,0.00,WeatherDisplay:10.37,2013-04-18 01:07:00,
2013-04-17 21:12:00,64.4,64.4,30.18,SSE,160,0.0,0.0,100,0.00,CLR,,0.00,WeatherDisplay:10.37,2013-04-18 01:12:00,
2013-04-17 21:17:00,64.4,64.4,30.18,SSE,160,0.0,0.0,100,0.00,CLR,,0.00,WeatherDisplay:10.37,2013-04-18 01:17:00,
2013-04-17 21:22:00,64.4,64.4,30.18,SE,140,4.6,4.6,100,0.00,CLR,,0.00,WeatherDisplay:10.37,2013-04-18 01:22:00,
2013-04-17 21:27:00,64.4,64.4,30.18,SE,140,4.6,4.6,100,0.00,CLR,,0.00,WeatherDisplay:10.37,2013-04-18 01:27:00,
2013-04-17 21:32:00,64.4,64.4,30.18,SE,140,4.6,4.6,100,0.00,CLR,,0.00,WeatherDisplay:10.37,2013-04-18 01:32:00,
2013-04-17 21:37:00,64.4,64.4,30.18,SE,140,4.6,4.6,100,0.00,CLR,,0.00,WeatherDisplay:10.37,2013-04-18 01:37:00,
2013-04-17 21:42:00,64.4,64.4,30.18,SE,130,4.6,4.6,100,0.00,CLR,,0.00,WeatherDisplay:10.37,2013-04-18 01:42:00,
2013-04-17 21:47:00,64.4,64.4,30.18,SE,130,3.5,3.5,100,0.00,CLR,,0.00,WeatherDisplay:10.37,2013-04-18 01:47:00,
2013-04-17 21:52:00,64.4,64.4,30.18,SE,130,3.5,3.5,100,0.00,CLR,,0.00,WeatherDisplay:10.37,2013-04-18 01:52:00,
2013-04-17 21:57:00,64.4,64.4,30.18,SE,130,3.5,3.5,100,0.00,CLR,,0.00,WeatherDisplay:10.37,2013-04-18 01:57:00,
2013-04-17 22:02:00,64.4,64.4,30.19,SSE,150,3.5,3.5,100,0.00,CLR,,0.00,WeatherDisplay:10.37,2013-04-18 02:02:00,
2013-04-17 22:07:00,64.4,64.4,30.19,SSE,150,3.5,3.5,100,0.00,CLR,,0.00,WeatherDisplay:10.37,2013-04-18 02:07:00,
2013-04-17 22:12:00,64.4,64.4,30.19,SSE,150,3.5,3.5,100,0.00,CLR,,0.00,WeatherDisplay:10.37,2013-04-18 02:12:00,
2013-04-17 22:17:00,64.4,64.4,30.19,SSE,150,3.5,3.5,100,0.00,CLR,,0.00,WeatherDisplay:10.37,2013-04-18 02:17:00,
2013-04-17 22:22:00,62.6,62.6,30.19,SE,130,3.5,3.5,100,0.00,CLR,,0.00,WeatherDisplay:10.37,2013-04-18 02:22:00,
2013-04-17 22:27:00,62.6,62.6,30.19,SE,130,3.5,3.5,100,0.00,CLR,,0.00,WeatherDisplay:10.37,2013-04-18 02:27:00,
2013-04-17 22:32:00,62.6,62.6,30.19,SE,130,3.5,3.5,100,0.00,CLR,,0.00,WeatherDisplay:10.37,2013-04-18 02:32:00,
2013-04-17 22:37:00,62.6,62.6,30.19,SE,130,3.5,3.5,100,0.00,CLR,,0.00,WeatherDisplay:10.37,2013-04-18 02:37:00,
2013-04-17 22:42:00,62.6,62.6,30.19,SE,130,3.5,0.0,100,0.00,CLR,,0.00,WeatherDisplay:10.37,2013-04-18 02:42:00,
2013-04-17 22:47:00,62.6,62.6,30.19,SE,130,0.0,0.0,100,0.00,CLR,,0.00,WeatherDisplay:10.37,2013-04-18 02:47:00,
2013-04-17 22:52:00,62.6,62.6,30.19,SE,130,0.0,0.0,100,0.00,CLR,,0.00,WeatherDisplay:10.37,2013-04-18 02:52:00,
2013-04-17 22:57:00,62.6,62.6,30.19,SE,130,0.0,0.0,100,0.00,CLR,,0.00,WeatherDisplay:10.37,2013-04-18 02:57:00,
2013-04-17 23:02:00,62.6,62.6,30.19,SE,130,0.0,0.0,100,0.00,CLR,,0.00,WeatherDisplay:10.37,2013-04-18 03:02:00,
2013-04-17 23:07:00,62.6,62.6,30.19,SE,130,0.0,0.0,100,0.00,CLR,,0.00,WeatherDisplay:10.37,2013-04-18 03:07:00,
2013-04-17 23:12:00,62.6,62.6,30.19,SE,130,0.0,0.0,100,0.00,CLR,,0.00,WeatherDisplay:10.37,2013-04-18 03:12:00,
2013-04-17 23:17:00,62.6,62.6,30.19,SE,130,0.0,0.0,100,0.00,CLR,,0.00,WeatherDisplay:10.37,2013-04-18 03:17:00,
2013-04-17 23:22:00,62.6,62.6,30.19,SE,130,0.0,0.0,100,0.00,CLR,,0.00,WeatherDisplay:10.37,2013-04-18 03:22:00,
2013-04-17 23:27:00,62.6,62.6,30.19,SE,130,0.0,0.0,100,0.00,CLR,,0.00,WeatherDisplay:10.37,2013-04-18 03:27:00,
2013-04-17 23:32:00,62.6,62.6,30.19,SE,130,0.0,0.0,100,0.00,CLR,,0.00,WeatherDisplay:10.37,2013-04-18 03:32:00,
2013-04-17 23:37:00,62.6,62.6,30.19,SE,130,0.0,0.0,100,0.00,CLR,,0.00,WeatherDisplay:10.37,2013-04-18 03:37:00,
2013-04-17 23:42:00,62.6,62.6,30.19,SE,130,0.0,0.0,100,0.00,CLR,,0.00,WeatherDisplay:10.37,2013-04-18 03:42:00,
2013-04-17 23:47:00,62.6,62.6,30.19,SE,130,0.0,0.0,100,0.00,CLR,,0.00,WeatherDisplay:10.37,2013-04-18 03:47:00,
2013-04-17 23:52:00,62.6,62.6,30.19,SE,130,0.0,0.0,100,0.00,CLR,,0.00,WeatherDisplay:10.37,2013-04-18 03:52:00,
2013-04-17 23:57:00,62.6,62.6,30.19,SE,130,0.0,0.0,100,0.00,CLR,,0.00,WeatherDisplay:10.37,2013-04-18 03:57:00,